When you browse on this site, cookies collect data to enhance your experience and personalize the content and advertising you see.
Visit our Privacy Policy to learn more. By continuing to use the site, you agree to this use of cookies and data.
  • In Austria
  • List of Countries
  • For 7 days
  • Water Temperature
  • Satellite Maps
  • Weather Map
  • News
  • Weather Widgets
  • user-avatar
    Login

    Hourly Weather Rawson

    Today, 21 February, Thursday

    Time Temperature Precipitation Wind Pressure Humidity
    00:00 +20°C° 0 mm 3 mps 755 mmHg 24%
    01:00 +19°C° 0 mm 4 mps 755 mmHg 25%
    02:00 +18°C° 0 mm 4 mps 755 mmHg 26%
    03:00 +17°C° 0 mm 5 mps 756 mmHg 26%
    04:00 +16°C° 0 mm 6 mps 756 mmHg 27%
    05:00 +15°C° 0 mm 7 mps 756 mmHg 27%
    06:00 +16°C° 0 mm 6 mps 756 mmHg 28%
    07:00 +16°C° 0 mm 6 mps 757 mmHg 28%
    08:00 +16°C° 0 mm 5 mps 757 mmHg 28%
    09:00 +17°C° 0 mm 4 mps 757 mmHg 27%
    10:00 +18°C° 0 mm 4 mps 758 mmHg 26%
    11:00 +18°C° 0 mm 3 mps 758 mmHg 25%
    12:00 +19°C° 0 mm 3 mps 758 mmHg 25%
    13:00 +20°C° 0 mm 2 mps 757 mmHg 24%
    14:00 +23°C° 0 mm 2 mps 757 mmHg 24%
    15:00 +21°C° 0.1 mm 3 mps 757 mmHg 27%
    16:00 +21°C° 0.1 mm 3 mps 757 mmHg 30%
    17:00 +20°C° 0.1 mm 4 mps 757 mmHg 34%
    18:00 +20°C° 0 mm 4 mps 757 mmHg 40%
    19:00 +19°C° 0 mm 5 mps 758 mmHg 47%
    20:00 +17°C° 0 mm 6 mps 758 mmHg 54%
    21:00 +17°C° 0 mm 5 mps 758 mmHg 54%
    22:00 +17°C° 0 mm 5 mps 758 mmHg 54%
    23:00 +18°C° 0 mm 4 mps 758 mmHg 55%

    Tomorrow, 22 February, Friday

    Time Temperature Precipitation Wind Pressure Humidity
    00:00 +18°C° 0 mm 4 mps 758 mmHg 55%
    01:00 +18°C° 0 mm 3 mps 758 mmHg 55%
    02:00 +18°C° 0 mm 3 mps 758 mmHg 55%
    03:00 +18°C° 0 mm 3 mps 758 mmHg 56%
    04:00 +17°C° 0 mm 4 mps 758 mmHg 56%
    05:00 +17°C° 0 mm 4 mps 758 mmHg 56%
    06:00 +17°C° 0 mm 5 mps 759 mmHg 51%
    07:00 +19°C° 0 mm 5 mps 759 mmHg 47%
    08:00 +20°C° 0 mm 5 mps 759 mmHg 42%
    09:00 +21°C° 0 mm 5 mps 759 mmHg 34%
    10:00 +22°C° 0 mm 5 mps 760 mmHg 26%
    11:00 +23°C° 0 mm 5 mps 760 mmHg 18%
    12:00 +23°C° 0 mm 4 mps 759 mmHg 17%
    13:00 +25°C° 0 mm 4 mps 759 mmHg 16%
    14:00 +25°C° 0 mm 4 mps 758 mmHg 15%
    15:00 +25°C° 0 mm 3 mps 758 mmHg 15%
    16:00 +25°C° 0 mm 3 mps 757 mmHg 16%
    17:00 +25°C° 0 mm 3 mps 757 mmHg 16%
    18:00 +24°C° 0 mm 3 mps 757 mmHg 21%
    19:00 +22°C° 0 mm 3 mps 757 mmHg 25%
    20:00 +21°C° 0 mm 3 mps 756 mmHg 30%
    21:00 +21°C° 0 mm 4 mps 756 mmHg 33%
    22:00 +21°C° 0 mm 5 mps 756 mmHg 35%
    23:00 +21°C° 0 mm 6 mps 756 mmHg 38%

    Day after tomorrow, 23 February, Saturday

    Time Temperature Precipitation Wind Pressure Humidity
    00:00 +21°C° 0 mm 6 mps 755 mmHg 37%
    01:00 +20°C° 0 mm 6 mps 755 mmHg 37%
    02:00 +20°C° 0 mm 5 mps 755 mmHg 36%
    03:00 +19°C° 0 mm 6 mps 754 mmHg 31%
    04:00 +17°C° 0 mm 7 mps 754 mmHg 27%
    05:00 +16°C° 0 mm 8 mps 753 mmHg 22%
    06:00 +16°C° 0 mm 8 mps 753 mmHg 24%
    07:00 +16°C° 0 mm 9 mps 753 mmHg 26%
    08:00 +16°C° 0 mm 10 mps 754 mmHg 28%
    09:00 +17°C° 0 mm 10 mps 753 mmHg 26%
    10:00 +18°C° 0 mm 11 mps 753 mmHg 25%
    11:00 +19°C° 0 mm 12 mps 753 mmHg 24%
    12:00 +21°C° 0 mm 12 mps 753 mmHg 23%
    13:00 +21°C° 0 mm 12 mps 752 mmHg 22%
    14:00 +22°C° 0 mm 12 mps 752 mmHg 22%
    15:00 +20°C° 0 mm 13 mps 752 mmHg 24%
    16:00 +19°C° 0 mm 13 mps 752 mmHg 27%
    17:00 +18°C° 0 mm 14 mps 752 mmHg 29%
    18:00 +17°C° 0 mm 12 mps 753 mmHg 30%
    19:00 +16°C° 0 mm 11 mps 753 mmHg 30%
    20:00 +15°C° 0 mm 9 mps 754 mmHg 30%
    21:00 +15°C° 0 mm 8 mps 754 mmHg 29%
    22:00 +14°C° 0 mm 7 mps 754 mmHg 29%
    23:00 +14°C° 0 mm 6 mps 755 mmHg 28%

    24 February, Sunday

    Time Temperature Precipitation Wind Pressure Humidity
    00:00 +14°C° 0 mm 6 mps 755 mmHg 28%
    01:00 +13°C° 0 mm 6 mps 754 mmHg 28%
    02:00 +13°C° 0 mm 6 mps 754 mmHg 28%
    03:00 +13°C° 0 mm 6 mps 754 mmHg 29%
    04:00 +11°C° 0 mm 6 mps 754 mmHg 30%
    05:00 +11°C° 0 mm 6 mps 755 mmHg 31%
    06:00 +12°C° 0 mm 7 mps 755 mmHg 34%
    07:00 +12°C° 0 mm 8 mps 755 mmHg 37%
    08:00 +13°C° 0 mm 8 mps 755 mmHg 40%
    09:00 +13°C° 0.3 mm 9 mps 755 mmHg 41%
    10:00 +13°C° 0.3 mm 9 mps 756 mmHg 42%
    11:00 +13°C° 0.3 mm 10 mps 756 mmHg 43%
    12:00 +13°C° 0.1 mm 10 mps 756 mmHg 39%
    13:00 +13°C° 0.1 mm 11 mps 756 mmHg 36%
    14:00 +13°C° 0.1 mm 12 mps 756 mmHg 32%
    15:00 +13°C° 0 mm 12 mps 756 mmHg 30%
    16:00 +13°C° 0 mm 12 mps 756 mmHg 28%
    17:00 +13°C° 0 mm 13 mps 756 mmHg 27%
    18:00 +12°C° 0 mm 12 mps 756 mmHg 29%
    19:00 +10°C° 0 mm 12 mps 757 mmHg 31%
    20:00 +9°C° 0 mm 12 mps 757 mmHg 33%
    21:00 +9°C° 0 mm 12 mps 758 mmHg 34%
    22:00 +8°C° 0 mm 12 mps 758 mmHg 36%
    23:00 +8°C° 0 mm 11 mps 758 mmHg 38%

    25 February, Monday

    Time Temperature Precipitation Wind Pressure Humidity
    00:00 +8°C° 0 mm 11 mps 758 mmHg 39%
    01:00 +8°C° 0 mm 11 mps 758 mmHg 40%
    02:00 +7°C° 0 mm 11 mps 758 mmHg 41%
    03:00 +7°C° 0 mm 11 mps 758 mmHg 42%
    04:00 +7°C° 0 mm 11 mps 758 mmHg 44%
    05:00 +7°C° 0 mm 11 mps 759 mmHg 45%
    06:00 +7°C° 0 mm 12 mps 759 mmHg 43%
    07:00 +7°C° 0 mm 12 mps 759 mmHg 41%
    08:00 +8°C° 0 mm 13 mps 759 mmHg 40%
    09:00 +9°C° 0 mm 13 mps 759 mmHg 37%
    10:00 +10°C° 0 mm 13 mps 759 mmHg 33%
    11:00 +12°C° 0 mm 13 mps 759 mmHg 30%
    12:00 +13°C° 0 mm 13 mps 759 mmHg 29%
    13:00 +13°C° 0 mm 12 mps 759 mmHg 27%
    14:00 +14°C° 0 mm 12 mps 758 mmHg 26%
    15:00 +14°C° 0 mm 12 mps 758 mmHg 26%
    16:00 +14°C° 0 mm 12 mps 758 mmHg 26%
    17:00 +14°C° 0 mm 12 mps 758 mmHg 26%
    18:00 +13°C° 0 mm 11 mps 758 mmHg 28%
    19:00 +12°C° 0 mm 10 mps 758 mmHg 31%
    20:00 +11°C° 0 mm 9 mps 758 mmHg 34%
    21:00 +11°C° 0 mm 8 mps 758 mmHg 36%
    22:00 +11°C° 0 mm 7 mps 759 mmHg 38%
    23:00 +11°C° 0 mm 6 mps 759 mmHg 39%

    26 February, Tuesday

    Time Temperature Precipitation Wind Pressure Humidity
    00:00 +10°C° 0 mm 6 mps 758 mmHg 39%
    01:00 +10°C° 0 mm 5 mps 758 mmHg 38%
    02:00 +10°C° 0 mm 5 mps 758 mmHg 38%
    03:00 +10°C° 0 mm 5 mps 758 mmHg 37%
    04:00 +10°C° 0 mm 5 mps 758 mmHg 35%
    05:00 +10°C° 0 mm 5 mps 758 mmHg 34%
    06:00 +12°C° 0 mm 5 mps 758 mmHg 31%
    07:00 +13°C° 0 mm 6 mps 758 mmHg 27%
    08:00 +14°C° 0 mm 6 mps 757 mmHg 24%
    09:00 +17°C° 0 mm 6 mps 757 mmHg 25%
    10:00 +20°C° 0 mm 7 mps 757 mmHg 27%
    11:00 +22°C° 0 mm 7 mps 757 mmHg 28%
    12:00 +23°C° 0 mm 7 mps 757 mmHg 30%
    13:00 +23°C° 0 mm 7 mps 756 mmHg 31%
    14:00 +23°C° 0 mm 6 mps 756 mmHg 33%
    15:00 +23°C° 0 mm 6 mps 755 mmHg 37%
    16:00 +22°C° 0 mm 6 mps 755 mmHg 40%
    17:00 +21°C° 0 mm 6 mps 755 mmHg 44%
    18:00 +20°C° 0 mm 6 mps 754 mmHg 48%
    19:00 +19°C° 0 mm 6 mps 754 mmHg 53%
    20:00 +17°C° 0 mm 6 mps 754 mmHg 57%
    21:00 +17°C° 0 mm 6 mps 753 mmHg 55%
    22:00 +19°C° 0 mm 6 mps 753 mmHg 54%
    23:00 +19°C° 0 mm 6 mps 753 mmHg 52%
    Show more